Location: *
(40.7190°N, 4.2480°W)
Time: 04:23:19
(UTC+00:00)

Cosmos 1743 Rocket - Pass Details

Date: 18 February 2020
Orbit: 605 x 632 km, 82.6° (Epoch: 02 April)

Event Time Altitude Azimuth Distance (km) Brightness Sun altitude
Rises 05:25:21 0° 350° (N) 2,869 6.9 -20.1°
Reaches altitude 10° 05:27:35 10° 350° (N) 1,961 6.0 -19.6°
Maximum altitude 05:31:55 78° 264° (W) 623 3.4 -18.8°
Drops below altitude 10° 05:36:13 10° 178° (S) 1,949 6.1 -18.0°
Sets 05:38:25 0° 177° (S) 2,851 7.0 -17.6°
